Location: Newark
(43.9494°N, 6.8108°E)
Time: 07:13:32
(UTC+00:00)

Transit 2A Rocket - Visible Passes

Search period start: 23 October 2019 00:00
Search period end: 02 November 2019 00:00
Orbit: 594 x 909 km, 66.7° (Epoch: 22 October)

Date Brightness Start Highest point End Pass type
(mag) Time Alt. Az. Time Alt. Az. Time Alt. Az.
23 Oct 6.1 03:08:09 36° ESE 03:08:25 36° ESE 03:12:46 10° NE visible
23 Oct 5.6 04:48:07 18° W 04:50:59 32° NW 04:55:09 10° NNE visible
24 Oct 7.3 02:27:39 18° E 02:27:39 18° E 02:29:38 10° ENE visible
24 Oct 4.9 04:07:37 47° W 04:08:20 52° NW 04:12:53 10° NNE visible
25 Oct 5.3 03:26:58 52° NNE 03:26:58 52° NNE 03:30:27 10° NNE visible
25 Oct 6.4 05:06:54 12° WNW 05:08:55 15° NW 05:11:41 10° N visible
26 Oct 6.9 02:46:09 22° NE 02:46:09 22° NE 02:47:52 10° NE visible
26 Oct 6.0 04:26:05 23° NW 04:26:05 23° NW 04:29:47 10° N visible
27 Oct 6.1 03:45:10 27° N 03:45:10 27° N 03:47:38 10° NNE visible
28 Oct 7.0 03:04:09 18° NNE 03:04:09 18° NNE 03:05:20 10° NNE visible
28 Oct 6.7 04:44:05 12° NW 04:44:08 12° NW 04:45:47 10° NNW visible
29 Oct 6.7 04:02:59 15° NNW 04:02:59 15° NNW 04:04:19 10° N visible
30 Oct 7.2 03:21:51 12° N 03:21:51 12° N 03:22:19 10° N visible
